Weather in Soyana

Russia / Arkhangel'skaya Oblast'     65°46′34″N   43°23′37″E
temp.,
°C
wind,
m/s
gust,
m/s
humid.,
%
clouds,
%
prec.,
mm/h
press.,
hPa
HPBL,
m
28 november, sun
sun2800:00−20ene1110084 0.0 101313
03:00−19ene1110089 0.0 101430
06:00−17ne2497100 0.1 1012130
09:00−16ene269896 0.1 1012181
12:00−16ne2798100 0.0 1011191
15:00−16nne2798100 0.1 1010136
18:00−15nne3894100 0.0 1009225
21:00−15nne31191100 0.0 1010275
29 november, mon
mon2900:00−15nne3109189 0.0 1009237
03:00−16n389286 0.0 1010192
06:00−17n27915 0.0 1011137
09:00−19nnw22955 0.0 101332
12:00−19wnw11955 0.0 101410
15:00−18sw119667 0.0 10159
18:00−16ssw119889 0.0 101614
21:00−17se119994 0.1 101613
30 november, tue
tue3000:00−18se1110082 0.1 101619
03:00−19ene2310068 0.1 101447
06:00−18e2898100 0.0 1013167
09:00−16e3139289 0.0 1010338
12:00−15e41679100 0.0 1006424
15:00−14e51774100 0.0 1002554
18:00−13ene51969100 0.0 998647
21:00−10ene51774100 0.0 994738
1 december, wed
wed100:00−10ene51672100 0.0 991754
03:00−9ene51481100 0.0 988767
06:00−10ene51286100 0.0 987707
09:00−10ene51289100 0.1 987702
12:00−9ene41194100 0.8 987736
15:00−9e41194100 2.2 987676
18:00−9e51192100 0.4 988545
21:00−9e41192100 0.7 987476
2 december, thu
thu200:00−9e41192100 0.2 987421
03:00−9e4109495 0.4 987354
06:00−9e399591 0.3 986309
09:00−8ene3895100 0.9 986309
12:00−7ene2696100 0.4 987219
15:00−7ne2596100 1.0 987236
18:00−8ne3695100 0.8 988272
21:00−9nne3795100 1.6 990317